ZHONGXING-2D

Last updated on Fri Jul 11 2025 00:02:45 GMT+0000 (Coordinated Universal Time)

1 43920U 19001A 25191.58741315 -.00000325 00000+0 00000+0 0 9990 2 43920 0.0672 232.3114 0001312 325.9772 71.9510 1.00273020 50657
UTC large
Height (km)
Speed (km/s)
/
Latitude / Longitude
Inclination (degrees)
Orbital Period (minutes)
Azimuth
Elevation
Range (km)
Doppler Factor

Next 0 passes for location: London (51.5072 / 0.1276)

Sorry there are no passes over London.